Location: Denia
(38.8500°N, 0.1170°E)
Time: 02:52:16
(UTC+01:00)

Envisat - Pass Details

Date: 22 January 2020
Orbit: 764 x 766 km, 98.1° (Epoch: 21 February)

Event Time Altitude Azimuth Distance (km) Brightness Sun altitude
Rises 18:37:18 0° 159° (SSE) 3,218 6.2 -5.9°
Reaches altitude 10° 18:39:36 10° 157° (SSE) 2,296 5.5 -6.4°
Maximum altitude 18:44:37 69° 75° (ENE) 820 3.0 -7.3°
Drops below altitude 10° 18:49:41 10° 353° (N) 2,311 5.4 -8.2°
Sets 18:52:00 0° 351° (N) 3,241 6.2 -8.6°
